This demonstration page uses our WeatherBlox Daily Observations layout. Learn more.

Left ArrowRight Arrow

31.31129, -92.44514

Hourly Observations for December 10, 2019

Temp ( °F °C ) Dew Point ( °F °C ) Humidity (%) Winds ( mph kmh ) Pressure ( in mb ) Visibility ( mi km ) Precip ( " mm )
12:15 am 00:15 Cloudy with Light Rain 71 21.7 68 20 90 90 SW 7 11 29.90 1012 3 4 0.04 1.02
12:22 am 00:22 Cloudy with Light Rain 71 21.7 68 20 90 90 SW 8 13 29.90 1012 6 10 0.04 1.02
12:37 am 00:37 Cloudy with Mist and Fog 70 21.1 69 20.6 97 97 SW 5 7 29.90 1012 5 8 0.04 1.02
12:53 am 00:53 Cloudy with Mist and Fog 70 21.1 69 20.6 97 97 SSW 5 7 29.90 1013 5 8 0.04 1.02
1:23 am 01:23 Cloudy 67 19.4 64 17.8 91 91 WNW 13 20 29.90 1012 7 11 0.00 0.00
1:29 am 01:29 Cloudy 65 18.3 62 16.7 90 90 NNW 15 24 29.91 1013 10 16 0.00 0.00
1:41 am 01:41 Cloudy 64 17.8 59 15 84 84 N 12 19 29.92 1013 10 16 0.00 0.00
1:53 am 01:53 Cloudy 63 17.2 59 15 87 87 N 13 20 29.93 1014 10 16 0.00 0.00
2:53 am 02:53 Cloudy with Light Rain 61 16.1 58 14.4 90 90 NW 8 13 29.97 1015 9 14 0.00 0.00
3:01 am 03:01 Cloudy 60 15.6 57 13.9 90 90 NNW 9 15 29.96 1015 10 16 0.00 0.00
3:53 am 03:53 Cloudy 60 15.6 52 11.1 75 75 N 10 17 29.97 1015 10 16 0.00 0.00
4:53 am 04:53 Cloudy 58 14.4 51 10.6 78 78 N 14 22 30.01 1016 10 16 0.00 0.00
5:53 am 05:53 Cloudy 55 12.8 48 8.9 77 77 N 10 17 30.04 1017 10 16 0.00 0.00
6:53 am 06:53 Cloudy with Light Rain 53 11.7 49 9.4 86 86 N 13 20 30.06 1018 10 16 0.01 0.25
7:45 am 07:45 Cloudy with Rain 52 11.1 50 10 93 93 N 13 20 30.11 1020 3 5 0.09 2.29
7:53 am 07:53 Cloudy with Rain 51 10.6 49 9.4 92 92 N 14 22 30.12 1020 5 8 0.10 2.54
8:00 am 08:00 Cloudy with Light Rain 51 10.6 49 9.4 92 92 N 13 20 30.11 1020 4 6 0.00 0.00
8:42 am 08:42 Cloudy with Light Rain 51 10.6 49 9.4 92 92 NNE 9 15 30.13 1020 5 8 0.02 0.51
8:51 am 08:51 Cloudy with Light Rain 52 11 48 9 88 88 NNE 9 15 30.14 1021 6 10 0.02 0.51
8:53 am 08:53 Cloudy with Light Rain 51 10.6 49 9.4 92 92 NNE 12 19 30.15 1021 6 10 0.02 0.51
9:44 am 09:44 Cloudy with Light Rain 50 10 47 8.3 89 89 N 10 17 30.19 1022 7 11 0.02 0.51
9:51 am 09:51 Cloudy with Light Rain 50 10 46 8 88 88 NNE 12 19 30.19 1022 8 13 0.02 0.51
9:53 am 09:53 Cloudy with Light Rain 50 10 47 8.3 89 89 NNE 16 26 30.20 1023 8 13 0.02 0.51
9:57 am 09:57 Cloudy with Light Rain 50 10 46 7.8 86 86 NNE 17 28 30.18 1022 7 11 0.00 0.00
10:46 am 10:46 Cloudy with Rain 49 9.4 46 7.8 90 90 NNE 10 17 30.20 1023 6 10 0.02 0.51
10:53 am 10:53 Cloudy with Heavy Rain 49 9.4 46 7.8 90 90 N 8 13 30.22 1023 4 6 0.03 0.76
11:19 am 11:19 Cloudy with Light Rain 48 8.9 45 7.2 89 89 NNE 10 17 30.21 1023 7 11 0.01 0.25
11:53 am 11:53 Cloudy with Light Rain 48 8.9 44 6.7 86 86 NNE 16 26 30.21 1023 5 8 0.02 0.51
12:00 pm 12:00 Cloudy with Light Rain 47 8.3 44 6.7 90 90 NE 14 22 30.20 1023 5 8 0.00 0.00
12:26 pm 12:26 Cloudy 47 8.3 44 6.7 90 90 NNE 12 19 30.19 1022 10 16 0.00 0.00
12:53 pm 12:53 Cloudy 47 8.3 44 6.7 90 90 NNE 10 17 30.20 1023 10 16 0.00 0.00
1:29 pm 13:29 Cloudy with Light Rain 45 7.2 43 6.1 93 93 N 12 19 30.21 1023 10 16 0.00 0.00
1:43 pm 13:43 Cloudy 45 7.2 41 5 86 86 NNE 13 20 30.21 1023 10 16 0.00 0.00
1:53 pm 13:53 Cloudy 45 7.2 40 4.4 83 83 NNE 15 24 30.24 1024 10 16 0.00 0.00
2:23 pm 14:23 Cloudy with Light Rain 44 6.7 40 4.4 85 85 NNE 7 11 30.24 1024 5 8 0.00 0.00
2:53 pm 14:53 Cloudy with Light Rain 43 6.1 41 5 93 93 NNE 13 20 30.24 1024 3 5 0.01 0.25
3:53 pm 15:53 Cloudy with Heavy Rain 43 6.1 40 4.4 89 89 N 9 15 30.28 1025 5 8 0.01 0.25
4:13 pm 16:13 Cloudy with Rain 43 6.1 40 4.4 89 89 NNE 9 15 30.23 1024 4 6 0.02 0.51
4:31 pm 16:31 Cloudy with Light Rain 43 6.1 41 5 93 93 NNE 9 15 30.25 1024 5 8 0.05 1.27
4:53 pm 16:53 Cloudy 43 6.1 41 5 93 93 N 8 13 30.28 1025 10 16 0.05 1.27
5:23 pm 17:23 Cloudy with Light Rain 42 5.6 40 4.4 92 92 NNE 8 13 30.27 1025 10 16 0.00 0.00
5:53 pm 17:53 Cloudy 42 5.6 39 3.9 89 89 N 8 13 30.30 1026 10 16 0.00 0.00
6:23 pm 18:23 Cloudy with Heavy Rain 41 5 39 3.9 93 93 NNE 9 15 30.30 1026 3 4 0.11 2.79
6:30 pm 18:30 Cloudy with Heavy Rain 41 5 39 3.9 93 93 NNE 9 15 30.30 1026 3 5 0.13 3.30
6:53 pm 18:53 Cloudy with Rain 41 5 40 4.4 96 96 NNE 8 13 30.32 1027 8 13 0.17 4.32
7:00 pm 19:00 Cloudy with Rain 41 5 39 3.9 93 93 NNE 8 13 30.30 1026 7 11 0.01 0.25
7:17 pm 19:17 Cloudy with Light Rain 42 5.6 40 4.4 92 92 N 9 15 30.32 1027 10 16 0.01 0.25
7:53 pm 19:53 Cloudy with Light Rain 41 5 39 3.9 93 93 N 10 17 30.33 1027 10 16 0.01 0.25
8:07 pm 20:07 Cloudy 41 5 38 3.3 89 89 N 13 20 30.34 1028 10 16 0.00 0.00
8:53 pm 20:53 Cloudy 41 5 38 3.3 89 89 N 10 17 30.35 1028 10 16 0.00 0.00
9:05 pm 21:05 Cloudy 41 5 39 3.9 93 93 N 14 22 30.35 1028 10 16 0.00 0.00
9:53 pm 21:53 Cloudy 41 5 38 3.3 89 89 NNE 13 20 30.38 1029 10 16 0.00 0.00
10:19 pm 22:19 Cloudy 41 5 37 2.8 86 86 NNE 13 20 30.38 1029 10 16 0.00 0.00
10:53 pm 22:53 Cloudy 40 4.4 37 2.8 89 89 N 12 19 30.40 1029 10 16 0.00 0.00
11:53 pm 23:53 Cloudy 40 4.4 37 2.8 89 89 NNE 9 15 30.40 1029 10 16 0.00 0.00

Powered by AerisWeather